Regional Weather Roundup
Issued by NWS

Home | Current Version | Previous Version | Graphics & Text | Print | Product List | Glossary On
Versions: 1 2 3 4 5 6 7 8 9 10 11 12 13 14 15 16 17 18 19 20 21 22 23 24 25 26 27
000
ASUS45 KBOU 250607
RWRCO

WEATHER ROUNDUP FOR COLORADO
NATIONAL WEATHER SERVICE DENVER/BOULDER CO
1200 AM MDT THU AUG 25 2016

NOTE: "FAIR" INDICATES FEW OR NO CLOUDS BELOW 12000 FEET WITH NO
SIGNIFICANT WEATHER AND/OR OBSTRUCTIONS TO VISIBILITY.

COZ001>005-013-030-031-250700-
...NORTHWEST COLORADO...

CITY           SKY/WX    TMP DP  RH WIND       PRES   REMARKS
CRAIG          FAIR      53  36  52 E6        30.20R
HAYDEN         FAIR      55  34  44 E5        30.22S
MEEKER         MOCLDY    55  43  63 CALM      30.23R
MOUNT WERNER   NOT AVBL
STEAMBOAT SPGS FAIR      52  37  56 CALM      30.24R
WALDEN         FAIR      37  34  87 SE6       30.33S
$$

COZ006>008-011-250700-
...WEST CENTRAL VALLEYS...

CITY           SKY/WX    TMP DP  RH WIND       PRES   REMARKS
GRAND JUNCTION MOCLDY    64  49  57 NE9       30.16R
MONTROSE       FAIR      60  47  61 S7        30.25R
EAGLE          FAIR      57  36  44 CALM      30.26R
RIFLE          FAIR      59  48  67 E6        30.18S
DELTA          FAIR      63  51  63 CALM      30.20S
NUCLA          FAIR      57  43  58 E9        30.25S
$$

COZ017>023-064>068-250700-
...SOUTHWEST COLORADO...

CITY           SKY/WX    TMP DP  RH WIND       PRES   REMARKS
DURANGO        MOCLDY    53  47  79 NW5       30.29S
CORTEZ         MOCLDY    56  50  80 SE6       30.21S
PAGOSA SPRINGS FAIR      48  47  95 CALM      30.36S
TELLURIDE      FAIR      49  41  73 SE8       30.44F
WOLF CREEK PAS FAIR      37  37 100 CALM      30.60F
$$

COZ009-010-012-014-032>034-037-058>063-250700-
...CENTRAL COLORADO...

CITY           SKY/WX    TMP DP  RH WIND       PRES   REMARKS
ASPEN          FAIR      47  37  68 SW7       30.32S
BUENA VISTA    FAIR      46  44  91 CALM      30.38F
COPPER MTN     FAIR      43  32  65 W5        30.56F
BERTHOUD PASS  FAIR      32  19  59 W13       30.57F WCI  22
COTTONWOOD PAS FAIR      46  41  81 CALM      30.46F
GUNNISON       MOCLDY    52  39  62 N7        30.38R
KREMMLING      FAIR      46  39  76 CALM      30.31S
LEADVILLE      CLOUDY    43  41  93 SW5       30.45S
MONARCH PASS   FAIR      37  34  87 SW13      30.66F
SALIDA         FAIR      48  46  90 CALM      30.44S
SUNLIGHT       FAIR      46  34  61 CALM      30.52R
WILKERSON PASS FAIR      37  36  93 W6        30.56S
$$

COZ069>075-250700-
...SAN LUIS VALLEY/SANGRE DE CRISTO MOUNTAINS...

CITY           SKY/WX    TMP DP  RH WIND       PRES   REMARKS
ALAMOSA        FAIR      48  44  86 SW6       30.34S
LA VETA PASS   FAIR      43  41  93 E6        30.47F
SAGUACHE       FAIR      46  45  93 N6        30.37F
$$

COZ035-036-038>040-250700-
...NORTHERN COLORADO FRONT RANGE...

CITY           SKY/WX    TMP DP  RH WIND       PRES   REMARKS
DENVER INTL AP FAIR      56  50  80 S6        30.24F
DMNS CITY PARK   N/A     54  54  98 E6        30.24S
AURORA         MOCLDY    53  52  95 SE9       30.25F
FRONT RANGE AP NOT AVBL
ERIE MUNI ARPT FAIR      52  50  93 CALM      30.22F
BOULDER MUN AP FAIR      57  50  77 CALM      30.22F
CENTENNIAL     FAIR      52  45  77 S5        30.26F
BROOMFIELD     FAIR      55  52  88 CALM      30.24F
FORT COLLINS   FAIR      55  50  82 CALM      30.23S
LONGMONT       FAIR      52  49  90 NW5       30.24S
$$

COZ041-046-047-076>085-087-088-250700-
...PIKES PEAK/PALMER DIVIDE AND SOUTHERN FOOTHILLS...

CITY           SKY/WX    TMP DP  RH WIND       PRES   REMARKS
COLO. SPRINGS  MOCLDY    55  35  47 E8        30.32R
A. F. ACADEMY  FAIR      49  46  87 W6        30.32R
SCHRIEVER AFB  NOT AVBL
ELLICOTT       NOT AVBL
FALCON         FAIR      50  35  57 CALM      30.34F
FORT CARSON    NOT AVBL
LIMON          FAIR      47  35  63 CALM      30.26F
MONUMENT HILL  FAIR      46  36  66 S12       30.34S
TRINIDAD       CLOUDY    56  53  90 W7        30.28F
$$

COZ042>045-048>051-090-091-250700-
...NORTHEAST COLORADO...

CITY           SKY/WX    TMP DP  RH WIND       PRES   REMARKS
GREELEY ARPT   FAIR      54  48  82 E3        30.22F
AKRON          FAIR      53  38  56 SE8       30.24S
BURLINGTON     FAIR      56  42  59 N5        30.21S
WRAY           FAIR      55  43  62 N3        30.21F
STERLING       FAIR      54  41  62 CALM      30.21S
HOLYOKE        FAIR      54  48  82 CALM      30.21F
FORT MORGAN    FAIR      55  39  54 SE5       30.23F
$$

COZ086-089-092>099-250700-
...SOUTHEAST COLORADO...

CITY           SKY/WX    TMP DP  RH WIND       PRES   REMARKS
PUEBLO         FAIR      60  52  74 CALM      30.24R
LA JUNTA       FAIR      64  43  46 CALM      30.21F
LAMAR          FAIR      63  44  50 NE7       30.16F
SPRINGFIELD      N/A     58  56  93 W6        30.19R
$$




USA.gov is the U.S. government's official web portal to all federal, state and local government web resources and services.